GSAT-6

Last updated on Fri Dec 19 2025 00:02:51 GMT+0000 (Coordinated Universal Time)

1 40880U 15041A 25352.57033471 -.00000137 00000+0 00000+0 0 9998 2 40880 1.4524 84.9921 0002832 179.3186 110.9562 1.00273535 37786
UTC large
Height (km)
Speed (km/s)
/
Latitude / Longitude
Inclination (degrees)
Orbital Period (minutes)
Azimuth
Elevation
Range (km)
Doppler Factor

Next 0 passes for location: London (51.5072 / 0.1276)

Sorry there are no passes over London.